Main page
METAR-TAF:

METAR-TAF

Airports :

Bushehr, Iran

Bushehr Airport

latitude: 28-59N, longitude: 050-50E, elevation: 19 m

Current weather observation

The report was made 28 minutes ago, at 16:00 UTC
Wind 12 kt from the North/Northwest
Temperature 20°C
Humidity 53%
Pressure 1022 hPa
Visibility: 7000 m

METAR: OIBB 181600Z 33012KT 7000 NSC 20/10 Q1022 A3019

Time: 19:58 (16:28 UTC)


TAF: missing

Weather observations and forecasts of more than 4000 airports (METAR and TAF reports).

The available stations are represented by yellow and red dots on the map.

Hover mouse over dot to see the name of the station.

Then click to see weather observations and forecasts.

To change the map : click on the green buttons with a black cross to zoom in, on the green button with a dash to zoom out, or on the green arrows for adjacent maps.


METAR-TAF: